Погода в Мараге

Россия / Республика Дагестан     41°57′46″N   48°07′04″E
темп.,
°C
ветер,
м/с
пор.,
м/с
влажн.,
%
обл.,
%
осадки,
мм/ч
давл.,
гПа
погр.,
м
12 апреля, пн
пн1200:00+12в226715 0.0 101530
03:00+11вюв1171100 0.0 101410
06:00+11св1176100 0.0 101611
09:00+11ссв2171100 0.0 1017286
12:00+14ссв4258100 0.0 1018691
15:00+15ссв42570 0.0 1018794
18:00+11ссв22700 0.0 1021135
21:00+9ююв227731 0.0 102228
13 апреля, вт
вт1300:00+10ю22770 0.0 102214
03:00+9ю11795 0.0 102110
06:00+9ю2281100 0.0 102227
09:00+15вюв47495 0.0 1021991
12:00+17вюв57410 0.0 10191342
15:00+17вюв67420 0.0 10171134
18:00+13вюв22552 0.0 101826
21:00+11зюз11604 0.0 101910
14 апреля, ср
ср1400:00+10з115546 0.0 101610
03:00+9з116370 0.0 101610
06:00+9зсз116721 0.0 101617
09:00+12св32595 0.0 1016666
12:00+13ссв5364100 0.2 10141079
15:00+11с467789 2.0 1014748
18:00+10ссз2586100 1.9 1015393
21:00+9зюз217858 1.9 101611
15 апреля, чт
чт1500:00+8ююз22760 0.0 101612
03:00+8ююз22760 0.0 101615
06:00+8юз22640 0.0 101617
09:00+14вюв33553 0.0 1016750
12:00+17вюв434511 0.0 10151563
15:00+16юв655444 0.0 10151199
18:00+12ююв346613 0.0 1016181
21:00+10юз22739 0.0 101715
16 апреля, пт
пт1600:00+11зюз327118 0.0 101616
03:00+10зюз326747 0.0 101615
06:00+11юз2262100 0.0 101715
09:00+16в3446100 0.0 10171137
12:00+18в554477 0.0 10161461
15:00+16вюв555196 0.1 10151074
18:00+13вюв3460100 0.1 1016142
21:00+12ю2264100 0.2 101611